Epoch 2023 May 16.0 TT = JDT 2460080.5 T 2023 May 8.21459 TT Veres q 2.2273664 (2000.0) P Q z -0.0006836 Peri. 162.41749 +0.69773215 +0.59407731 +/-0.0000607 Node 212.37150 +0.53388729 -0.05865878 e 1.0015227 Incl. 131.61188 +0.47763397 -0.80226635 From 120 observations 2020 Apr. 18-Nov. 26, mean residual 0".3.
m1 = 4.5 + 5 log d + 10.0 log r